Theta_e
324 320 320 315 302 301 298 299 304 304 306 313 318 318 314 313 308 308 319 320 318 323 336 340 343 346 347 348 347 345 345 345 345 346 346 346 345 344 344 344 345 344 341 339 338 337 336 335 334
321 319 316 309 298 294 296 302 301 305 309 317 319 318 313 307 313 311 314 317 319 327 336 342 340 344 346 346 346 345 344 344 344 344 345 346 344 344 343 343 345 344 341 339 336 335 336 335 334
319 316 309 303 299 294 296 301 303 307 313 315 315 314 309 306 310 310 315 317 321 326 333 338 338 341 343 346 345 343 343 343 343 344 344 345 344 343 343 343 344 343 342 338 336 334 336 333 334
317 313 308 300 296 298 300 302 305 306 310 312 314 307 308 310 309 313 317 320 320 326 329 331 337 339 340 343 343 343 342 342 342 341 343 344 344 341 343 342 343 343 341 338 335 334 333 333 333
314 308 300 299 298 300 303 304 306 305 307 307 310 309 307 310 315 316 318 321 319 323 326 327 330 333 334 337 340 343 344 344 344 345 342 342 344 342 340 341 342 343 341 338 336 333 332 332 332
306 305 297 295 297 300 303 304 305 305 306 307 307 307 310 315 312 315 319 319 321 317 320 326 325 327 328 330 331 335 338 340 340 342 342 343 345 345 344 343 342 341 340 337 335 333 332 331 330
304 301 296 296 297 298 300 304 302 303 304 304 306 304 309 311 311 316 318 319 319 317 317 318 320 325 325 327 326 327 333 338 338 340 341 339 341 342 343 341 341 340 341 337 336 334 333 331 329
307 303 296 297 297 297 300 302 304 303 303 307 306 301 302 305 311 316 318 319 317 315 315 314 317 318 325 326 326 325 328 332 335 335 336 335 336 336 336 334 337 340 339 339 337 336 334 330 328
308 299 296 295 295 298 299 298 304 305 303 304 303 302 304 306 311 312 313 314 314 314 314 311 313 317 319 324 325 324 326 328 330 330 330 329 332 336 335 333 334 338 337 337 337 336 332 330 328
303 298 295 297 297 296 297 298 300 299 300 300 301 304 304 305 306 307 309 308 309 308 312 311 309 312 316 319 325 325 326 327 330 335 334 333 329 333 336 329 330 332 332 334 334 335 330 325 323
299 297 296 296 299 298 298 298 301 298 297 300 299 301 301 302 303 304 304 306 306 307 308 309 307 309 312 315 319 327 324 325 328 332 333 332 328 333 338 336 333 333 327 332 331 331 329 327 324
295 296 297 298 299 298 297 300 298 299 299 301 301 301 301 300 301 301 302 303 303 304 305 306 306 306 309 312 316 320 325 325 325 328 332 330 331 334 335 335 334 332 333 328 326 329 329 327 325
296 296 297 298 298 298 298 297 297 298 301 301 300 300 300 300 300 302 302 303 303 302 303 304 304 306 307 311 314 316 321 324 325 329 330 331 330 333 335 334 332 332 332 329 326 323 326 326 324
298 297 297 297 297 297 295 297 296 298 300 300 298 298 299 299 299 300 300 300 300 301 302 302 301 304 304 308 312 314 317 321 321 328 331 330 330 332 334 332 332 332 331 329 327 324 324 325 324
298 294 295 296 296 296 297 294 294 298 299 298 298 298 298 299 299 299 299 299 300 301 302 302 301 303 303 306 309 314 316 316 319 329 332 331 329 332 333 332 330 330 330 327 326 324 323 321 322
294 293 291 294 295 297 296 292 296 299 298 297 298 298 298 298 298 299 299 299 299 300 301 302 303 302 302 305 307 310 314 315 318 329 331 330 329 332 332 331 332 333 332 329 326 323 321 320 320
293 289 290 292 294 294 294 292 296 298 297 297 298 298 298 298 299 299 299 299 299 299 300 301 302 303 303 305 307 306 312 311 315 323 328 329 329 331 330 331 333 332 330 327 325 322 320 319 321
288 288 290 289 293 293 293 293 297 299 297 297 298 299 299 299 299 299 298 298 298 298 299 300 301 302 302 304 305 305 309 306 312 313 322 327 328 329 330 329 330 331 330 325 324 323 323 323 322
290 289 289 292 293 291 293 293 295 297 297 297 298 298 298 299 300 299 298 298 298 298 297 298 299 300 301 300 300 300 300 303 307 309 314 317 324 328 329 328 328 327 328 326 325 323 321 321 323
290 288 289 292 292 291 292 291 294 295 296 296 297 297 298 299 299 299 298 297 297 296 296 297 298 299 300 299 299 298 299 302 307 306 310 313 316 320 327 328 327 327 327 327 326 324 322 323 323
289 287 287 286 291 293 290 291 292 295 295 296 297 298 297 297 297 298 297 297 296 295 295 295 296 298 298 298 299 298 300 302 301 302 306 311 312 315 319 326 327 328 327 326 326 325 324 321 322
286 289 288 288 288 286 290 285 291 293 293 295 296 296 296 297 297 297 296 296 295 295 296 296 296 297 298 298 298 296 295 295 298 299 302 307 309 311 314 318 325 325 328 327 327 327 325 324 319
288 290 288 288 287 287 288 285 290 292 290 293 295 295 296 297 297 296 296 296 295 295 295 296 296 297 297 297 297 296 295 296 298 299 300 303 307 309 309 312 321 323 325 326 327 326 325 325 322
291 289 289 287 286 284 285 284 288 288 290 292 295 296 296 297 297 297 296 296 296 295 295 296 295 296 296 296 296 296 295 296 296 298 298 299 303 306 307 309 312 324 324 324 323 326 325 324 323
289 287 285 285 282 285 283 282 287 291 293 293 294 295 296 297 297 297 296 295 295 293 293 293 293 293 295 295 295 295 296 296 297 297 298 297 300 302 304 306 308 313 324 326 326 325 325 324 323
286 285 285 279 283 283 281 281 288 293 294 294 295 296 297 297 297 296 296 295 294 292 292 293 292 293 294 294 293 295 295 296 297 297 298 299 299 300 302 304 307 311 315 324 325 324 324 323 321
286 286 285 281 276 279 285 286 290 291 293 294 294 295 295 296 296 296 296 295 294 292 291 292 292 293 293 292 293 294 295 295 296 297 299 300 300 300 301 303 306 309 312 315 319 319 319 320 319
287 288 283 283 280 282 284 282 286 287 290 293 293 293 294 295 295 296 296 295 294 292 291 292 292 292 293 293 293 294 294 294 296 297 297 299 300 300 301 303 305 308 311 313 315 318 318 317 317
285 285 283 284 281 281 282 287 292 290 292 292 293 293 293 293 294 294 295 295 294 293 291 291 291 292 293 292 293 293 292 293 295 295 296 298 299 300 301 303 304 306 308 312 313 315 316 314 311
286 285 286 284 283 280 279 284 290 292 292 293 293 293 293 292 293 293 294 295 294 293 290 290 291 291 292 293 293 292 292 293 293 293 294 296 297 300 300 302 304 304 304 307 311 308 308 307 305
Wind_Speed
13 5 5 5 5 5 2 4 3 6 5 11 7 9 7 8 4 5 14 15 23 20 18 12 9 9 8 8 10 10 8 7 9 9 9 10 11 12 11 14 13 13 14 14 13 12 12 13 13
8 3 5 1 6 6 6 3 2 8 7 11 8 10 9 5 5 9 10 23 21 18 19 10 6 12 11 9 9 10 9 8 7 9 8 9 9 10 13 15 13 13 13 15 14 14 13 14 11
8 6 5 3 3 4 4 3 5 6 3 10 4 9 4 5 7 9 12 18 19 16 16 13 9 10 12 11 11 11 10 9 9 8 8 8 8 9 11 13 12 14 15 15 14 14 14 14 12
4 5 4 7 3 4 5 5 6 6 4 10 5 5 4 5 8 10 16 16 14 14 14 17 15 14 8 10 12 11 10 10 10 10 10 8 8 9 12 13 13 15 14 14 14 13 13 14 12
5 3 4 1 4 4 6 6 5 7 7 9 9 4 3 4 8 11 13 14 13 14 12 11 19 16 15 11 6 9 10 9 10 10 11 10 8 8 10 11 13 16 14 15 14 13 13 13 12
5 3 5 3 5 3 3 5 4 4 5 10 6 8 4 4 15 15 13 13 12 12 15 13 12 16 15 15 15 12 5 6 8 8 7 7 8 8 10 12 14 16 17 15 15 14 13 12 11
3 4 3 1 3 4 4 4 5 7 4 7 10 7 3 8 16 13 11 11 11 12 12 12 14 10 11 11 13 16 14 8 8 8 7 5 5 9 12 13 15 17 18 16 15 13 11 11 10
3 3 3 1 0 3 3 3 5 5 5 6 8 5 4 15 15 13 12 11 11 11 10 12 12 11 9 7 8 9 14 10 8 8 6 4 4 6 11 13 14 17 18 17 15 13 11 11 9
2 4 2 2 2 5 1 4 6 2 5 2 3 5 9 13 13 12 11 10 12 11 11 10 11 11 11 9 5 8 10 9 9 7 6 5 6 7 11 11 13 13 15 14 12 14 13 11 7
5 3 4 4 3 2 2 4 4 4 2 2 3 4 9 11 11 12 12 12 13 14 13 11 11 11 11 9 9 5 5 5 8 8 9 8 8 7 10 10 14 14 13 12 10 11 12 9 7
5 4 5 3 4 3 3 2 3 6 4 4 8 10 11 12 11 10 11 12 12 13 10 12 11 12 11 9 8 4 2 4 3 10 7 7 6 5 5 7 6 8 11 8 8 7 6 8 6
6 4 2 1 2 2 3 4 6 3 5 3 5 7 9 10 10 11 10 11 12 12 13 12 11 10 10 7 6 9 6 3 4 6 9 5 5 5 7 6 8 7 6 8 7 6 8 7 6
9 5 1 2 1 2 3 4 7 5 1 2 3 6 8 8 9 9 9 9 11 12 13 13 12 11 10 9 6 6 8 5 7 9 9 5 6 5 6 8 8 7 7 6 4 2 2 7 7
5 3 2 0 1 1 6 6 4 5 3 6 5 6 6 7 7 8 9 10 10 12 12 12 12 10 11 10 10 6 7 10 8 11 12 12 8 7 8 7 8 9 8 7 7 8 6 6 5
6 1 4 1 4 2 7 7 7 3 5 6 6 5 4 5 5 7 8 10 10 10 12 12 11 12 11 13 11 8 8 8 9 11 14 13 11 10 10 9 8 8 9 11 7 6 6 5 5
2 2 4 4 5 1 7 4 2 4 6 8 6 5 4 5 4 4 5 8 10 11 12 12 10 10 11 11 9 9 8 7 8 10 11 12 9 13 11 8 9 10 9 9 8 6 5 4 4
3 5 6 2 2 6 4 10 3 5 7 9 7 6 5 5 5 3 4 6 8 9 11 12 12 12 12 11 8 8 9 6 8 8 6 10 10 12 9 9 8 9 7 7 8 8 7 6 6
4 5 6 6 6 8 11 11 9 6 8 10 9 7 6 6 5 4 5 5 7 9 10 10 10 12 13 10 9 5 5 7 8 9 4 6 7 11 10 5 5 8 7 6 8 8 7 6 6
2 4 8 6 5 9 6 12 9 4 5 7 8 7 7 6 3 3 3 5 6 7 9 10 11 12 10 9 9 5 4 5 7 7 10 7 2 6 6 6 8 6 6 8 9 7 9 6 5
1 4 6 7 1 7 10 13 3 3 2 4 7 7 7 6 5 2 3 4 6 8 9 9 10 11 9 8 6 4 6 4 6 7 8 9 8 6 2 7 7 8 8 10 10 9 6 5 5
3 3 6 5 12 10 12 8 6 5 3 1 4 5 5 5 5 5 4 4 5 8 9 9 9 10 9 10 7 5 5 4 5 8 7 7 8 6 6 4 5 9 8 7 9 10 10 6 6
1 2 4 5 7 3 6 3 5 2 2 3 1 4 4 2 2 3 3 4 6 7 7 8 8 8 8 9 7 8 5 4 4 6 6 5 6 6 5 5 4 5 6 8 8 8 8 7 6
4 3 2 2 3 7 2 5 6 2 3 4 2 3 3 3 3 3 2 2 3 4 7 6 6 7 7 7 7 6 5 4 5 5 8 7 6 6 6 6 4 5 4 5 7 7 7 5 5
5 4 3 2 1 3 1 4 1 4 4 2 2 2 3 4 4 3 2 1 2 3 5 5 6 6 7 7 7 8 7 6 5 5 6 5 5 5 6 6 6 4 7 5 4 7 7 5 4
5 5 3 2 2 2 2 4 6 2 1 3 4 5 4 4 5 4 3 2 2 3 4 4 6 6 7 7 7 6 5 7 6 5 3 5 5 4 7 7 6 5 2 7 6 5 5 5 4
3 5 2 5 4 4 2 5 1 2 1 4 4 5 5 5 4 5 3 2 1 2 4 4 5 6 7 6 5 5 6 4 5 5 4 2 4 5 7 6 5 5 4 3 3 3 3 3 2
2 1 2 0 3 3 2 5 5 2 4 3 3 2 5 4 5 5 2 3 2 3 3 4 5 5 5 6 7 6 5 6 5 6 5 4 2 3 6 6 5 5 4 3 3 3 3 3 4
2 3 1 2 4 5 3 5 2 5 6 4 3 2 3 3 5 5 4 3 2 3 3 2 3 4 4 4 3 4 4 5 6 5 5 4 4 3 5 5 5 4 3 2 1 4 4 4 3
4 3 2 1 1 4 5 1 3 4 5 4 2 1 5 5 4 4 4 3 2 3 3 3 3 4 4 4 4 3 5 5 5 5 6 6 6 5 5 5 6 4 4 2 3 2 4 5 4
3 3 4 3 3 1 2 8 1 3 1 1 3 3 4 4 4 3 3 4 3 2 2 3 3 4 4 3 3 4 3 4 5 5 6 7 7 6 6 6 5 4 4 4 3 5 4 5 5
Wind_Direction
282 253 247 228 224 246 189 116 306 358 350 354 332 44 78 45 9 20 334 359 336 328 312 308 212 206 189 184 162 156 165 161 159 154 156 162 168 168 162 148 141 141 132 123 117 108 97 97 98
308 267 232 235 254 226 127 60 22 11 359 334 55 332 34 69 34 318 335 335 329 328 339 338 232 216 184 174 168 164 172 171 174 163 167 167 172 167 158 152 144 126 130 121 123 115 119 107 112
273 263 249 242 284 307 26 63 7 346 43 4 76 54 23 4 349 337 333 325 332 347 349 7 352 271 200 172 170 174 178 180 179 175 179 188 176 173 159 157 145 131 136 124 126 127 119 112 117
267 201 212 255 92 45 30 43 352 354 77 43 77 74 80 56 343 328 325 340 341 347 355 5 30 38 297 195 176 179 181 181 185 187 186 194 187 183 166 163 150 137 134 133 133 131 125 121 120
232 258 241 315 75 93 64 23 354 356 11 20 343 119 118 279 8 352 345 346 355 350 354 21 24 38 43 2 235 195 189 190 188 192 193 194 197 189 180 170 158 140 135 134 136 132 133 131 128
226 281 246 257 98 119 98 9 340 349 4 19 4 325 131 239 5 355 348 352 11 6 357 1 3 14 33 33 20 343 253 202 205 193 197 199 204 190 183 181 166 150 139 145 142 140 138 133 133
312 283 33 326 114 172 30 341 8 333 349 27 343 307 70 21 355 347 341 357 16 14 3 358 353 360 8 15 22 358 333 285 236 209 180 206 214 196 179 183 173 157 142 147 145 143 141 131 132
301 281 193 24 90 93 41 330 345 355 38 324 349 19 334 346 342 340 346 356 4 19 13 2 350 352 348 339 328 348 330 307 285 241 173 191 270 251 186 174 174 164 152 148 146 144 143 128 133
309 245 83 56 308 63 25 312 99 309 294 33 34 20 342 341 337 344 346 353 355 2 9 7 351 349 345 326 318 344 315 323 258 261 196 182 227 194 184 183 162 154 145 137 137 142 133 130 122
349 320 53 20 20 340 348 325 331 294 303 201 226 17 356 345 345 348 346 348 350 351 350 8 356 348 340 332 323 295 302 339 309 245 216 219 222 199 179 159 132 133 122 120 145 134 128 156 156
25 52 123 86 21 333 355 279 340 314 269 47 330 336 341 342 346 349 346 343 342 339 342 351 359 345 343 337 323 305 301 287 286 288 230 222 214 207 155 138 151 146 155 156 144 142 176 198 165
115 73 359 108 45 309 332 329 294 310 17 349 328 329 325 333 336 340 339 337 337 338 340 342 348 348 336 329 317 316 288 331 280 261 244 224 206 195 175 153 157 155 156 154 178 179 187 176 174
89 104 87 126 179 5 314 280 318 264 219 227 289 296 315 317 323 326 334 338 339 340 336 341 337 343 335 325 309 311 311 303 302 241 214 241 214 195 165 166 157 152 158 150 135 126 202 175 175
102 123 148 233 305 279 297 300 252 161 222 242 256 296 309 315 322 320 337 339 342 336 336 336 332 340 339 323 314 303 296 300 294 237 208 179 227 206 162 164 168 163 164 164 169 177 190 187 172
118 176 233 246 348 253 318 215 229 138 216 261 263 279 303 304 306 323 330 334 336 334 332 344 337 335 334 319 319 310 300 301 294 235 202 184 195 198 157 173 168 168 174 169 170 184 164 186 179
163 239 267 100 331 142 308 20 193 193 246 266 282 282 281 297 298 307 324 326 337 336 338 338 339 329 332 314 323 313 309 315 308 235 188 188 191 184 172 175 179 183 171 169 178 169 165 164 191
159 339 341 185 55 321 290 319 107 238 256 274 277 279 281 286 292 306 335 332 334 336 338 341 341 340 333 330 330 319 308 336 323 301 173 179 191 174 184 183 186 179 159 168 176 175 178 193 203
354 329 333 312 36 324 284 276 306 256 245 275 276 277 277 288 325 342 327 339 335 332 340 344 344 345 337 341 333 331 310 347 346 344 21 184 198 181 172 180 172 173 177 177 176 179 188 196 198
69 306 302 323 25 320 288 305 304 347 277 263 269 276 285 292 4 303 318 324 322 334 340 350 345 350 349 350 348 342 342 333 347 348 5 44 17 201 180 165 158 158 173 180 175 178 185 190 195
61 322 356 306 311 311 297 304 253 263 318 307 306 305 300 292 277 285 302 327 342 334 345 353 350 351 353 354 344 319 317 327 327 338 350 24 17 358 190 178 167 174 185 206 178 168 181 184 174
75 3 353 308 316 262 284 244 216 183 248 273 285 299 285 270 284 305 321 332 345 341 345 351 349 348 356 356 343 342 317 318 6 351 336 22 6 8 356 208 208 189 191 195 184 185 179 171 189
283 90 305 306 328 337 340 317 180 188 306 199 302 324 340 321 240 281 310 340 6 337 344 349 351 347 2 360 354 359 349 352 348 323 314 1 6 10 0 341 203 244 195 194 188 193 193 184 174
35 298 299 297 293 313 188 245 107 179 303 41 12 334 328 326 314 297 306 5 5 344 343 350 354 348 9 2 2 349 6 345 315 313 329 354 2 10 11 359 284 207 204 221 203 191 190 181 158
319 249 218 242 283 252 169 293 86 345 337 338 12 5 318 319 296 261 208 188 50 46 351 352 358 3 6 2 9 356 353 348 324 333 335 348 340 354 16 7 353 224 191 208 212 186 177 174 200
268 288 325 283 231 293 155 259 273 295 253 282 301 315 316 301 287 284 258 276 61 34 16 5 355 8 359 7 1 352 351 335 320 343 336 333 326 351 358 360 354 336 202 207 192 177 156 181 190
10 318 125 291 326 360 124 237 164 123 200 263 263 274 287 271 280 268 263 222 89 60 28 19 15 13 360 13 354 356 359 324 322 341 321 318 343 333 330 338 341 345 307 187 166 147 182 179 190
63 267 41 144 142 274 251 249 252 204 212 199 234 259 277 295 294 297 272 232 162 107 71 13 14 31 32 5 353 357 350 348 335 326 323 330 353 318 304 304 323 336 295 98 169 178 177 198 204
260 125 139 83 301 272 207 277 289 203 208 195 230 262 314 308 294 292 279 229 166 119 109 92 32 29 28 26 21 353 346 347 334 328 322 324 320 322 308 316 328 314 306 104 108 161 164 159 174
162 205 220 133 248 299 315 254 184 163 178 193 163 309 324 323 305 302 276 253 174 156 130 109 84 35 34 28 16 359 1 353 338 338 338 338 325 339 331 333 320 338 341 344 97 87 119 107 104
283 284 252 186 167 226 294 275 325 107 131 242 241 262 313 315 303 300 255 240 235 187 147 112 85 70 51 17 9 30 12 6 4 358 349 349 336 350 343 328 328 356 11 353 110 99 83 109 102